Location: *
(40.7873°S, 98.7174°E)
Time: 11:28:35
(UTC+00:00)

Kosmos-1816 - Pass Details

Date: 24 June 2024
Orbit: 959 x 1007 km, 82.9° (Epoch: 23 July)

Event Time Altitude Azimuth Distance (km) Brightness Sun altitude
Rises 13:36:26 0° 205° (SSW) 3,756 9.3 -39.0°
Reaches altitude 10° 13:39:59 10° 224° (SW) 2,790 8.8 -39.7°
Maximum altitude 13:43:45 17° 260° (W) 2,324 8.5 -40.4°
Drops below altitude 10° 13:47:29 10° 297° (WNW) 2,751 8.9 -41.1°
Sets 13:50:58 0° 317° (NW) 3,679 9.4 -41.8°
